Location: Ferintosh
(52.7647°N, 112.9692°W)
Time: 14:17:58
(UTC+00:00)

Transit 2A Rocket - Pass Details

Date: 19 May 2024
Orbit: 583 x 910 km, 66.7° (Epoch: 22 June)

Event Time Altitude Azimuth Distance (km) Brightness Sun altitude
Rises 20:55:24 0° 318° (NW) 3,390 8.3 53.2°
Reaches altitude 10° 20:57:53 10° 312° (NW) 2,493 7.7 53.0°
Maximum altitude 21:03:25 46° 241° (WSW) 1,174 7.9 52.5°
Drops below altitude 10° 21:09:10 10° 170° (S) 2,587 8.2 51.9°
Sets 21:11:47 0° 165° (SSE) 3,529 8.7 51.7°
